Terug naar catalogus

ATLAS 5 CENTAUR DEB

ActiefHEO
NORAD 46660·DEBRIS·🇺🇸 United States

Gelanceerd Oct 17, 2018 vanaf Cape Canaveral Space Force Station

Loading…

Volgende Passages (komende 24 uur)

TLE

VersSource: Space-Track

Epoch: Sep 14, 2026, 08:36 UTC

1 46660U 18079CN  26257.35852061 -.00000178  00000-0  00000-0 0  9996
2 46660  13.3702  33.5886 4594035 317.6030  14.7889  1.81072024 13582

Volg ATLAS 5 CENTAUR DEB in realtime met AllMySat

Download on the App Store